Location: Astronomy Club of Akron Observatory
(40.9700°N, 81.5606°W)
Time: 23:27:15
(UTC-04:00)

Daily predictions for brighter satellites

Satellite Brightness Start Highest point End
(mag) Time Altitude Azimuth Time Altitude Azimuth Time Altitude Azimuth
Cosmos 407 Rocket 4.5 21:29:43 10° SW 21:34:42 52° WNW 21:39:43 10° N
Cosmos 1867 4.4 21:30:53 10° S 21:35:32 30° ESE 21:40:14 10° NE
Cosmos 1023 Rocket 4.4 21:31:18 10° S 21:36:25 72° ESE 21:41:32 10° NNE
Cosmos 1340 Rocket 2.9 21:40:11 10° S 21:44:08 62° E 21:48:09 10° NNE
Cosmos 1980 4.3 21:40:45 10° NNW 21:46:18 56° WSW 21:51:50 10° S
Spot 1 4.0 21:43:53 10° SSE 21:47:57 82° WSW 21:52:10 10° NNW
Cosmos 1954 Rocket 4.3 21:42:54 10° SSW 21:48:05 74° WNW 21:53:17 10° NNE
ATLAS 5 CENTAUR R/B 1.9 21:43:47 10° SSW 21:48:15 52° ESE 21:53:05 10° NE
Cosmos 2173 Rocket 4.5 21:46:24 10° N 21:52:14 43° ENE 21:58:05 10° SSE
Cosmos 1850 Rocket 4.1 21:47:47 10° S 21:52:50 57° ESE 21:57:55 10° NNE
SPOT 5 3.9 21:49:09 10° SE 21:53:22 32° ENE 21:57:48 10° N
Lacrosse 5 3.5 21:49:08 10° NNW 21:53:24 26° NNE 21:57:39 10° E
Cosmos 2084 3.6 21:50:47 10° S 21:54:36 41° ESE 21:58:15 10° NE
Cosmos 614 Rocket 4.0 21:50:08 10° SSW 21:55:21 87° ESE 22:00:35 10° NNE
YAOGAN 6 2.6 21:51:53 10° S 21:55:30 84° WSW 21:59:12 10° NNW
Cosmos 1605 Rocket 4.4 21:49:18 10° NNW 21:55:31 70° W 22:01:48 10° S
Cosmos 2237 Rocket 3.0 21:51:16 10° NW 21:56:40 49° WSW 22:02:03 10° S
Cosmos 1726 4.1 21:54:34 10° NE 21:56:46 15° ENE 21:58:49 11° ESE
Helios 1B rocket 2.9 21:53:09 10° N 21:57:16 65° WNW 22:01:22 10° SSW
Helios 1A 3.7 21:54:02 10° S 21:58:04 53° W 22:02:09 10° NNW
CZ-4B DEB 3.1 21:55:34 10° S 21:58:29 58° W 22:01:26 10° NNW
USA 234 3.4 21:53:22 10° NE 21:59:42 50° SE 22:05:59 10° SSW
Cosmos 1842 Rocket 4.5 21:57:32 10° NNW 22:01:47 48° W 22:05:57 10° SSW
CZ-3B R/B 3.9 21:59:44 10° SSW 22:02:30 48° ESE 22:10:46 10° NE
H-2A R/B 3.2 22:00:47 12° SE 22:05:00 31° ENE 22:09:42 10° N
Atlas Centaur 2 2.9 22:03:18 10° SW 22:05:20 14° S 22:06:40 12° SSE
ERS-1 Rocket 3.0 22:01:56 10° SSE 22:06:57 79° ENE 22:12:01 10° N
Abrixas rocket 4.4 22:07:58 10° NW 22:10:37 22° N 22:13:17 10° ENE
Cosmos 1802 Rocket 4.3 22:04:56 10° N 22:10:56 52° ENE 22:16:08 14° SSE
Cosmos 2227 Rocket 3.8 22:06:07 10° SW 22:11:22 39° WNW 22:16:39 10° N
Cosmos 1818 3.6 22:06:22 10° NNW 22:11:50 76° ENE 22:16:16 16° SE
Lacrosse 4 Rocket 4.1 22:10:56 10° WSW 22:14:28 25° NW 22:18:05 10° N
Cosmos 1674 2.6 22:13:03 10° S 22:16:48 72° E 22:20:34 10° NNE
Cosmos 1908 3.2 22:13:05 10° N 22:16:59 72° E 22:20:03 15° SSE
Cosmos 1741 Rocket 4.1 22:11:45 10° SSW 22:17:05 89° WNW 22:22:25 10° NNE
SL-16 R/B 2.3 22:14:34 10° NNW 22:20:14 76° WSW 22:25:10 14° SSE
Meteor 2-17 Rocket 4.4 22:17:20 10° N 22:23:32 81° E 22:29:08 13° S
ARGOS 3.2 22:20:18 15° SSE 22:24:51 71° ENE 22:30:15 10° N
NOSS 3-4 (A) 4.5 22:20:05 10° NW 22:26:55 50° WSW 22:33:42 12° S
NOSS 3-4 (C) 4.5 22:20:11 10° NW 22:27:01 51° WSW 22:33:47 12° S
Cosmos 1408 Rocket 3.6 22:23:36 15° S 22:27:04 55° E 22:31:18 10° NNE
MetOp-A 4.2 22:22:19 13° SSE 22:27:14 86° WSW 22:32:37 10° NNW
KORONAS-FOTON 3.8 22:24:12 14° S 22:27:18 62° E 22:31:04 10° NNE
Cosmos 1356 Rocket 3.5 22:28:04 10° S 22:32:17 84° W 22:36:37 10° N
Cosmos 1076 Rocket 3.7 22:28:19 10° SSW 22:32:40 77° W 22:37:03 10° N
Tiangong 1 1.1 22:31:42 10° W 22:34:29 63° N 22:36:45 14° ENE
Terra 3.0 22:36:22 19° ESE 22:38:49 29° ENE 22:42:56 10° N
Cosmos 2016 Rocket 4.0 22:36:41 10° N 22:42:58 78° E 22:47:32 19° SSE
Cosmos 2221 3.7 22:40:25 10° NNW 22:44:30 39° W 22:48:36 10° SSW
Cosmos 1500 Rocket 4.5 22:45:14 25° SE 22:46:44 32° E 22:50:43 10° NNE
Cosmos 332 Rocket 4.0 22:47:16 10° NNW 22:52:07 59° ENE 22:54:33 28° SE
ERBS 4.1 22:50:06 10° NNW 22:52:56 24° NE 22:54:40 16° ENE
Cosmos 2227 4.2 22:48:23 10° SSW 22:54:07 86° ESE 22:59:52 10° NNE
Cosmos 2151 3.9 22:54:01 28° ESE 22:55:02 31° E 22:58:52 10° NNE
Cosmos 1814 Rocket 4.3 22:50:14 10° N 22:55:31 56° ENE 22:58:11 28° SE
CARTOSAT-1 4.2 22:55:32 29° ESE 22:57:12 42° ENE 23:01:16 10° N
RESURS DK-1 2.5 22:53:34 10° NNW 22:57:44 66° ENE 22:59:21 35° SE
SL-08 RB Rocket 4.0 22:56:04 22° S 22:58:53 65° W 23:03:28 10° NNW
Cosmos 1486 Rocket 4.3 22:57:03 27° SSE 22:59:30 45° ESE 23:04:33 10° NNE
SPOT 1/Viking Rocket 3.5 22:56:35 24° S 22:59:44 83° WSW 23:04:55 10° NNW
Cosmos 1242 Rocket 4.0 22:56:42 10° NNW 23:00:05 33° W 23:02:30 16° SSW
Cosmos 1766 Rocket 4.2 22:58:37 12° SSW 23:02:32 53° W 23:06:48 10° N
Meteor 2-2 Rocket 4.3 22:57:56 10° N 23:03:44 86° E 23:07:11 26° S
USA 245 4.2 23:03:34 23° SSW 23:05:08 37° W 23:08:47 10° NNW
EO 1 Delta rocket 3.9 23:04:01 25° S 23:06:45 76° W 23:11:23 10° NNW
Cosmos 2233 Rocket 4.2 23:02:19 10° N 23:08:24 53° E 23:11:20 30° SE
Cosmos 841 Rocket 4.1 23:04:00 10° N 23:09:03 45° ENE 23:11:13 29° ESE
Cosmos 1328 Rocket 3.4 23:06:46 10° N 23:11:08 88° W 23:12:49 37° S
SL-14 R/B 3.3 23:10:43 32° SSW 23:12:30 82° W 23:16:29 10° N
Cosmos 1763 Rocket 3.6 23:07:30 10° NNW 23:12:35 61° ENE 23:14:35 35° SE
Cosmos 2228 Rocket 3.1 23:07:59 10° N 23:12:37 88° E 23:14:28 36° S
Cosmos 1515 Rocket 3.5 23:10:20 10° N 23:14:41 72° E 23:16:02 42° SSE
Cosmos 1328 3.9 23:15:50 31° SSW 23:17:41 72° W 23:21:44 10° N
H-2A R/B 2.3 23:17:20 40° SE 23:18:34 55° ENE 23:22:45 10° N
Cosmos 1743 Rocket 3.5 23:16:55 31° SSW 23:18:55 81° W 23:23:16 10° N
Cosmos 2263 Rocket 2.3 23:21:44 35° SSE 23:23:43 52° ESE 23:29:08 10° NNE
Cosmos 1151 Rocket 3.0 23:19:21 10° N 23:23:44 70° E 23:24:51 47° SSE
Cosmos 1300 3.2 23:20:06 10° NNW 23:23:51 55° W 23:25:01 38° SSW
Cosmos 1626 2.4 23:25:43 48° E 23:25:45 48° E 23:29:21 10° NNE
Cosmos 1447 Rocket 4.5 23:24:35 31° S 23:27:51 73° E 23:34:12 10° N
SL-19 R/B 4.1 23:23:09 10° NNE 23:28:29 69° ESE 23:30:50 35° S
SPOT 5 4.4 23:28:21 15° SW 23:31:23 28° W 23:35:43 10° NW
Cosmos 1726 3.6 23:28:54 10° NNW 23:32:10 30° W 23:33:27 24° SW
ATLAS 5 CENTAUR R/B 4.3 23:29:25 10° W 23:33:16 23° NW 23:37:24 10° NNE
IGS 5A 3.4 23:33:58 51° S 23:34:56 77° W 23:39:07 10° NNW
Lacrosse 5 1.8 23:31:44 10° NW 23:36:48 72° SW 23:38:08 48° SSE
Meteor 2-12 Rocket 4.4 23:32:08 10° N 23:38:14 77° E 23:40:35 39° SSE
USA 234 4.1 23:36:24 10° NE 23:42:41 52° NNW 23:48:57 10° WSW
Cosmos 371 Rocket 3.7 23:38:16 10° NNW 23:42:59 55° WSW 23:44:22 40° SSW
H-2A R/B 3.3 23:41:24 20° SSW 23:44:17 34° W 23:49:12 10° NNW
Cosmos 1503 Rocket 4.0 23:43:58 48° SSE 23:45:05 60° ESE 23:50:11 10° NNE
Abrixas rocket 2.7 23:44:36 10° NW 23:47:34 56° N 23:47:34 56° N
Cosmos 2285 Rocket 4.2 23:41:59 10° NNW 23:48:15 61° ENE 23:50:38 38° SE
PSLV R/B 4.1 23:49:41 44° NNW 23:49:41 44° NNW 23:51:45 10° NNW
CZ-4C R/B 3.6 23:53:11 57° ESE 23:53:36 60° ENE 23:57:54 10° N
